Regional Weather Roundup
Issued by NWS

Home | Current Version | Previous Version | Graphics & Text | Print | Product List | Glossary On
Versions: 1 2 3 4 5 6 7 8 9 10 11 12 13 14 15 16 17 18 19 20 21 22 23 24 25 26 27 28 29 30 31 32 33 34 35 36 37 38 39 40 41 42 43 44 45 46 47 48 49 50
443
ASUS43 KMPX 180601
RWRMN
WEATHER ROUNDUP FOR MINNESOTA
NATIONAL WEATHER SERVICE TWIN CITIES/CHANHASSEN MN
100 AM CDT WED OCT 18 2017


NOTE: "FAIR" INDICATES FEW OR NO CLOUDS BELOW 12,000 FEET WITH NO
SIGNIFICANT WEATHER AND/OR OBSTRUCTIONS TO VISIBILITY. N/A MEANS
CURRENT SKY AND/OR WEATHER CONDITIONS ARE NOT AVAILABLE.

MNZ060>063-068>070-180700-
   Twin Cities Metro

CITY           SKY/WX    TMP DP  RH WIND       PRES   REMARKS
TWIN CITIES    CLEAR     61  46  57 SW8       29.89F
6HR MIN TEMP:  60; 6HR MAX TEMP:  67;

ST PAUL        CLEAR     53  46  77 SE7       29.91F
CRYSTAL        CLEAR     60  42  51 S12       29.87F
BLAINE         CLEAR     61  45  55 S10       29.87F
LAKEVILLE      CLEAR     54  45  71 S5        29.91S
EDEN PRAIRIE   CLEAR     58  45  62 S12       29.88F
6HR MIN TEMP:  58; 6HR MAX TEMP:  65;

SOUTH ST PAUL  CLEAR     56  44  63 S3        29.90F
LAKE ELMO      FAIR      54  45  71 S8        29.91S
$$
MNZ001>005-007-008-013>017-022>024-027-028-180700-
   Northwest Minnesota

CITY           SKY/WX    TMP DP  RH WIND       PRES   REMARKS
BEMIDJI        CLEAR     56  40  54 S9        29.69F
HALLOCK        CLOUDY    54  34  47 S13       29.51F
ROSEAU         CLEAR     57  43  58 S15       29.55F
WARROAD        CLEAR     61  43  51 S12G17    29.55F
CROOKSTON      CLOUDY    55  39  54 S16       29.61F
FOSSTON        CLEAR     55  37  50 S13       29.67F
DETROIT LAKES  CLEAR     61  41  48 S9        29.72F
MOORHEAD       CLEAR     52  43  71 S12       29.68F
PARK RAPIDS    CLEAR     48  39  71 S6        29.73F
MAHNOMEN       FAIR      54  41  62 S12       29.68F
$$
MNZ006-009>011-018-025>026-180700-
   North Central Minnesota

CITY           SKY/WX    TMP DP  RH WIND       PRES   REMARKS
BAUDETTE       CLEAR     58  41  53 S13       29.60F
FLAG ISLAND    CLEAR     52  46  82 S12       29.53F
INTL FALLS     CLEAR     57  38  48 VRB7      29.65F
6HR MIN TEMP:  57; 6HR MAX TEMP:  61;

WASKISH        CLEAR     59  41  51 S7        29.65F
BIG FORK       CLEAR     55  39  54 S9        29.71F
LONGVILLE      CLEAR     55  39  54 S6        29.75F
GRAND RAPIDS   CLEAR     54  40  59 S10       29.77F
CRANE LAKE     CLEAR     55  37  50 S3        29.72F
ORR            CLEAR     54  36  50 S8        29.70F
COOK           CLEAR     57  39  51 S9G16     29.74F
WALKER         FAIR      58  38  48 SW9G16    29.72F
$$
MNZ012-019>021-037-180700-
   Northeast Minnesota

CITY           SKY/WX    TMP DP  RH WIND       PRES   REMARKS
DULUTH         CLEAR     55  41  59 SW10      29.81F
6HR MIN TEMP:  55; 6HR MAX TEMP:  59;

ELY            CLEAR     57  37  47 S10       29.76F
HIBBING        CLEAR     49  38  65 CALM      29.76F
EVELETH        CLEAR     54  32  43 S8        29.78F
DULUTH HARBOR  CLEAR     52  46  82 CALM      29.82F
TWO HARBORS    CLEAR     43  37  81 CALM      29.80F
SILVER BAY     CLEAR     37  37 100 CALM      29.80F
GRAND MARAIS     N/A     44  42  93 N3        29.81F
G MARAIS ARPRT CLOUDY    48  39  71 SW5       29.83F
$$
MNZ029>031-032-039>041-046>048-054>057-064-180700-
   West Central Minnesota

CITY           SKY/WX    TMP DP  RH WIND       PRES   REMARKS
FERGUS FALLS   CLEAR     54  39  58 S12       29.74F
WHEATON        CLEAR     55  37  50 S10       29.75F
MORRIS         CLEAR     52  43  71 S12       29.76F
ALEXANDRIA     CLEAR     60  41  49 S16       29.79F
ELBOW LAKE     FAIR      51  41  68 S12       29.75F
WADENA         CLEAR     54  39  58 S8        29.75F
GLENWOOD       CLEAR     57  41  54 S16       29.80F
APPLETON       CLEAR     59  43  55 S9        29.77F
BENSON         CLEAR     52  41  66 SW10      29.81F
ORTONVILLE     CLEAR     50  39  66 N3        29.76F
MADISON        CLEAR     57  45  62 S7        29.79F
WILLMAR        FAIR      55  43  62 S3        29.85S
$$
MNZ033>034-036-042>043-049>051-058-059-180700-
   Central Minnesota

CITY           SKY/WX    TMP DP  RH WIND       PRES   REMARKS
ST CLOUD       CLEAR     51  40  65 S8        29.83F
6HR MIN TEMP:  50; 6HR MAX TEMP:  62;

SAUK CENTRE    FAIR      54  40  60 S12       29.81S
PAYNESVILLE    PTCLDY    57  42  56 S13       29.83F
AITKIN         CLEAR     52  39  62 S5        29.77F
PINE RIVER     CLEAR     52  37  58 CALM      29.79F
BRAINERD       CLEAR     57  38  48 S12       29.79F
STAPLES        CLEAR     55  37  50 S9        29.76F
LONG PRAIRIE   FAIR      54  37  54 S9        29.80F
LITTLE FALLS   CLEAR     50  32  50 S6        29.80F
LITCHFIELD     CLEAR     55  43  62 CALM      29.85F
BUFFALO        CLEAR     56  44  62 S6        29.87F
MAPLE LAKE     CLEAR     56  45  67 S6        29.86F
HUTCHINSON     CLOUDY    52  44  74 S5        29.88F
$$
MNZ037-044-045-052-053-180700-
   East Central Minnesota

CITY           SKY/WX    TMP DP  RH WIND       PRES   REMARKS
PRINCETON      CLEAR     55  43  62 S7        29.85F
MORA           CLEAR     50  41  71 S5        29.85F
CAMBRIDGE      CLEAR     57  45  62 S7        29.85F
RUSH CITY      MOCLDY    53  43  69 S6        29.85F
MOOSE LAKE     CLEAR     52  41  66 S5        29.81S
HINCKLEY       FAIR      52  43  71 S5        29.84F
CLOQUET        CLEAR     52  39  62 S6        29.81F
MCGREGOR       CLEAR     50  39  66 S7        29.80S
$$
MNZ071>073-080-081-089-090-097-098-180700-
   Southwest Minnesota

CITY           SKY/WX    TMP DP  RH WIND       PRES   REMARKS
MONTEVIDEO     CLEAR     55  43  62 SW8G16    29.81F
GRANITE FALLS  CLEAR     53  46  75 S9        29.85F
CANBY          CLEAR     63  43  48 SW14G23   29.81F
MARSHALL       CLEAR     57  45  64 SW18      29.82F
REDWOOD FALLS  CLEAR     57  43  59 S13       29.86F
OLIVIA         CLEAR     54  43  66 S8        29.85F
PIPESTONE        N/A     54  45  71 S8        29.87F
WORTHINGTON    CLEAR     55  44  66 SW10      29.91F
JACKSON        CLEAR     52  43  71 S9        29.92F
TRACY          CLEAR     60  47  61 SW20G25   29.86F
SLAYTON        PTCLDY    56  41  56 S9        29.89F
$$
MNZ065>067-074>077-082>085-091>093-180700-
   South Central Minnesota

CITY           SKY/WX    TMP DP  RH WIND       PRES   REMARKS
MANKATO        CLEAR     51  44  77 S8        29.92F
NEW ULM        CLEAR     54  43  66 S9        29.88F
ST JAMES       CLEAR     54  45  71 S8        29.91F
FAIRMONT       CLEAR     53  45  74 SW8       29.93F
GLENCOE        CLEAR     55  46  71 S6        29.88F
FARIBAULT      CLEAR     54  45  71 S6        29.93F
OWATONNA       CLEAR     54  45  71 S10       29.94S
WASECA         CLEAR     52  43  71 S6        29.94F
ALBERT LEA     CLEAR     57  46  67 S6        29.96S
$$
MNZ078>079-086>088-094>096-180700-
   Southeast Minnesota

CITY           SKY/WX    TMP DP  RH WIND       PRES   REMARKS
ROCHESTER      CLEAR     51  45  79 S13       29.97F
6HR MIN TEMP:  51; 6HR MAX TEMP:  57;

RED WING       CLEAR     57  43  58 CALM      29.92S
STANTON        CLEAR     55  45  68 S6        29.91S
DODGE CENTER   CLEAR     54  43  66 S12       29.95F
WINONA         CLEAR     59  45  58 SW5       29.97S
AUSTIN         CLEAR     48  43  81 S5        29.97F
PRESTON        CLEAR     53  43  69 S9        29.99S
$$
ABBREVIATIONS USED IN REMARKS
   TC - TEMPERATURES IN CELSIUS
  WCI - WIND CHILL INDEX
   HX - HEAT INDEX
  VSB - VISIBILITY
$$




USA.gov is the U.S. government's official web portal to all federal, state and local government web resources and services.